Starlink 5348

operational
NORAD ID: 56515 Int'l Des: 2023-065 Owner: SPXS Country: US Constellation: starlink
LEOCIRCULAR

About Starlink 5348

Description loading...

Live Position

Loading 3D Globe...

Upcoming Passes

Altitude History

Altitude vs Time

uPlot chart will show altitude changes over time

Two-Line Element Set

1 56515U 23065N 25306.38064406 .00000809 00000-0 74983-4 0 9997
2 56515 43.0034 182.1451 0001000 267.3921 92.6807 15.02531645137477
Epoch: Nov 2, 2025 • Age: 9 hours

Current Status

Altitude 558.3 km
Velocity 7.58 km/s
Sub-Earth Point 8.05°N, 41.37°E
Launch Date May 14, 2023
Age 2.4 years
Type internet

Technical Details

Classification Payload
Mass 305.00 kg
Dry Mass 290.00 kg
Total Mass 305.00 kg
Length 0.20 m
Diameter 2.80 m
Span 9.00 m
Shape Box + pan
Manufacturer SPXS
Bus Type Starlink
Phase Status In Orbit
Owner/State SPXS/US

Large Constellations

Loading constellations...